Orbital Elements at Epoch 2459000.5 (2020-May-31.0) TDB
Reference: JPL 22 (heliocentric ecliptic J2000)
Element | Value | Uncertainty (1-sigma) | Units |
e | .1638933065332214 | 4.3e-08 | |
a | 2.331986699483003 | 7.4924e-09 | au |
q | 1.94978968851324 | 1.0154e-07 | au |
i | 2.963469267757135 | 3.3148e-06 | deg |
node | 284.1905712759341 | 9.0206e-05 | deg |
peri | 96.48271687188677 | 9.0927e-05 | deg |
M | 327.5215750198574 | 1.0105e-05 | deg |
tp | 2459117.849161291678 (2020-Sep-25.34916129) | 3.642e-05 | TDB |
period | 1300.731118914576 3.56 | 6.2687e-06 1.716e-08 | d yr |
n | .2767674231553789 | 1.3338e-09 | deg/d |
Q | 2.714183710452766 | 8.7204e-09 | au |
|
| | Orbit Determination Parameters
Additional Information
|